• în România
  • Lista ţărilor
  • Pe 7 zile
  • Temperatura apei
  • Hartă satelitară
  • Meteo pe hartă
  • Widget-uri
  • user-avatar
    Intrare

    Meteo pe oră la Darwin

    Astăzi, 20 Noiembrie, Luni

    Timp Temperatura Precipitaţii Vânt Presiune Umiditate
    00:00 +31°C° 0 mm 2 m/s 756 mmHg 72%
    01:00 +31°C° 0 mm 2 m/s 756 mmHg 73%
    02:00 +30°C° 0 mm 2 m/s 756 mmHg 74%
    03:00 +30°C° 0 mm 1 m/s 756 mmHg 77%
    04:00 +30°C° 0 mm 1 m/s 756 mmHg 77%
    05:00 +30°C° 0 mm 1 m/s 756 mmHg 78%
    06:00 +30°C° 0 mm 1 m/s 756 mmHg 78%
    07:00 +32°C° 0 mm 1 m/s 756 mmHg 69%
    08:00 +34°C° 0 mm 1 m/s 757 mmHg 59%
    09:00 +36°C° 0 mm 2 m/s 757 mmHg 54%
    10:00 +38°C° 0 mm 2 m/s 757 mmHg 48%
    11:00 +40°C° 0 mm 2 m/s 756 mmHg 42%
    12:00 +42°C° 0 mm 2 m/s 756 mmHg 35%
    13:00 +41°C° 0 mm 2 m/s 755 mmHg 37%
    14:00 +40°C° 0 mm 3 m/s 755 mmHg 39%
    15:00 +38°C° 0 mm 3 m/s 755 mmHg 46%
    16:00 +37°C° 0,2 mm 3 m/s 755 mmHg 50%
    17:00 +36°C° 0,2 mm 3 m/s 755 mmHg 53%
    18:00 +35°C° 0,2 mm 3 m/s 755 mmHg 56%
    19:00 +34°C° 0 mm 3 m/s 755 mmHg 59%
    20:00 +34°C° 0 mm 3 m/s 755 mmHg 62%
    21:00 +32°C° 0 mm 2 m/s 756 mmHg 66%
    22:00 +33°C° 0,1 mm 3 m/s 756 mmHg 69%
    23:00 +31°C° 0,1 mm 3 m/s 756 mmHg 71%

    Mâine, 21 Noiembrie, Marţi

    Timp Temperatura Precipitaţii Vânt Presiune Umiditate
    00:00 +31°C° 0,1 mm 3 m/s 755 mmHg 74%
    01:00 +31°C° 0 mm 3 m/s 755 mmHg 76%
    02:00 +30°C° 0 mm 2 m/s 755 mmHg 78%
    03:00 +30°C° 0 mm 2 m/s 755 mmHg 80%
    04:00 +30°C° 0,1 mm 2 m/s 755 mmHg 81%
    05:00 +30°C° 0,1 mm 2 m/s 755 mmHg 82%
    06:00 +30°C° 0,1 mm 2 m/s 755 mmHg 83%
    07:00 +31°C° 0,1 mm 2 m/s 755 mmHg 74%
    08:00 +34°C° 0,1 mm 2 m/s 756 mmHg 64%
    09:00 +36°C° 0,1 mm 2 m/s 756 mmHg 55%
    10:00 +37°C° 0,1 mm 3 m/s 756 mmHg 50%
    11:00 +38°C° 0,1 mm 3 m/s 755 mmHg 46%
    12:00 +40°C° 0,1 mm 3 m/s 755 mmHg 41%
    13:00 +39°C° 0,4 mm 3 m/s 755 mmHg 42%
    14:00 +38°C° 0,4 mm 3 m/s 754 mmHg 43%
    15:00 +38°C° 0,4 mm 4 m/s 754 mmHg 45%
    16:00 +37°C° 0 mm 3 m/s 754 mmHg 49%
    17:00 +36°C° 0 mm 3 m/s 754 mmHg 54%
    18:00 +34°C° 0 mm 3 m/s 754 mmHg 58%
    19:00 +34°C° 0 mm 3 m/s 754 mmHg 62%
    20:00 +33°C° 0 mm 3 m/s 754 mmHg 66%
    21:00 +31°C° 0 mm 3 m/s 755 mmHg 70%
    22:00 +31°C° 0,1 mm 3 m/s 755 mmHg 72%
    23:00 +31°C° 0,1 mm 2 m/s 755 mmHg 74%

    Poimâine, 22 Noiembrie, Miercuri

    Timp Temperatura Precipitaţii Vânt Presiune Umiditate
    00:00 +30°C° 0,1 mm 2 m/s 755 mmHg 77%
    01:00 +30°C° 0,3 mm 2 m/s 754 mmHg 77%
    02:00 +30°C° 0,3 mm 2 m/s 754 mmHg 78%
    03:00 +30°C° 0,3 mm 2 m/s 754 mmHg 79%
    04:00 +30°C° 1,7 mm 2 m/s 754 mmHg 80%
    05:00 +30°C° 1,7 mm 2 m/s 754 mmHg 80%
    06:00 +30°C° 1,7 mm 3 m/s 754 mmHg 81%
    07:00 +31°C° 0,1 mm 3 m/s 755 mmHg 76%
    08:00 +33°C° 0,1 mm 3 m/s 755 mmHg 70%
    09:00 +34°C° 0,1 mm 3 m/s 755 mmHg 65%
    10:00 +35°C° 0,2 mm 2 m/s 755 mmHg 59%
    11:00 +37°C° 0,2 mm 2 m/s 755 mmHg 53%
    12:00 +38°C° 0,2 mm 2 m/s 754 mmHg 48%
    13:00 +38°C° 0,8 mm 2 m/s 754 mmHg 50%
    14:00 +37°C° 0,8 mm 3 m/s 753 mmHg 53%
    15:00 +36°C° 0,8 mm 3 m/s 752 mmHg 55%
    16:00 +36°C° 0,1 mm 3 m/s 752 mmHg 58%
    17:00 +35°C° 0,1 mm 3 m/s 752 mmHg 61%
    18:00 +34°C° 0,1 mm 3 m/s 752 mmHg 64%
    19:00 +33°C° 1,1 mm 3 m/s 753 mmHg 68%
    20:00 +31°C° 1,1 mm 2 m/s 753 mmHg 73%
    21:00 +30°C° 1,1 mm 2 m/s 754 mmHg 78%
    22:00 +30°C° 0,1 mm 2 m/s 754 mmHg 78%
    23:00 +30°C° 0,1 mm 2 m/s 754 mmHg 79%

    23 Noiembrie, Joi

    Timp Temperatura Precipitaţii Vânt Presiune Umiditate
    00:00 +30°C° 0,1 mm 3 m/s 754 mmHg 79%
    01:00 +30°C° 0 mm 3 m/s 754 mmHg 80%
    02:00 +30°C° 0 mm 3 m/s 753 mmHg 81%
    03:00 +29°C° 0 mm 3 m/s 753 mmHg 83%
    04:00 +29°C° 0,3 mm 3 m/s 753 mmHg 83%
    05:00 +29°C° 0,3 mm 2 m/s 754 mmHg 83%
    06:00 +29°C° 0,3 mm 2 m/s 754 mmHg 83%
    07:00 +30°C° 0,1 mm 2 m/s 755 mmHg 77%
    08:00 +32°C° 0,1 mm 2 m/s 755 mmHg 71%
    09:00 +34°C° 0,1 mm 2 m/s 755 mmHg 64%
    10:00 +35°C° 0 mm 2 m/s 755 mmHg 60%
    11:00 +36°C° 0 mm 2 m/s 755 mmHg 55%
    12:00 +38°C° 0 mm 3 m/s 754 mmHg 51%
    13:00 +37°C° 0 mm 3 m/s 754 mmHg 51%
    14:00 +37°C° 0 mm 3 m/s 753 mmHg 52%
    15:00 +37°C° 0 mm 3 m/s 752 mmHg 52%
    16:00 +36°C° 0,2 mm 3 m/s 752 mmHg 56%
    17:00 +35°C° 0,2 mm 3 m/s 753 mmHg 60%
    18:00 +34°C° 0,2 mm 3 m/s 753 mmHg 64%
    19:00 +34°C° 0,1 mm 3 m/s 754 mmHg 67%
    20:00 +33°C° 0,1 mm 3 m/s 754 mmHg 71%
    21:00 +31°C° 0,1 mm 3 m/s 755 mmHg 75%
    22:00 +31°C° 0,2 mm 3 m/s 755 mmHg 76%
    23:00 +31°C° 0,2 mm 3 m/s 754 mmHg 78%

    24 Noiembrie, Vineri

    Timp Temperatura Precipitaţii Vânt Presiune Umiditate
    00:00 +30°C° 0,2 mm 3 m/s 754 mmHg 80%
    01:00 +30°C° 0,3 mm 3 m/s 754 mmHg 80%
    02:00 +30°C° 0,3 mm 3 m/s 753 mmHg 81%
    03:00 +30°C° 0,3 mm 3 m/s 753 mmHg 82%
    04:00 +30°C° 0,5 mm 3 m/s 754 mmHg 82%
    05:00 +30°C° 0,5 mm 2 m/s 754 mmHg 83%
    06:00 +29°C° 0,5 mm 2 m/s 755 mmHg 84%
    07:00 +31°C° 0 mm 2 m/s 756 mmHg 77%
    08:00 +32°C° 0 mm 2 m/s 756 mmHg 71%
    09:00 +34°C° 0 mm 1 m/s 757 mmHg 64%
    10:00 +35°C° 0,3 mm 1 m/s 756 mmHg 61%
    11:00 +37°C° 0,3 mm 2 m/s 756 mmHg 57%
    12:00 +38°C° 0,3 mm 2 m/s 755 mmHg 53%
    13:00 +38°C° 0 mm 2 m/s 755 mmHg 52%
    14:00 +38°C° 0 mm 2 m/s 754 mmHg 51%
    15:00 +38°C° 0 mm 2 m/s 753 mmHg 51%
    16:00 +37°C° 0 mm 2 m/s 753 mmHg 53%
    17:00 +36°C° 0 mm 2 m/s 754 mmHg 56%
    18:00 +35°C° 0 mm 2 m/s 754 mmHg 59%
    19:00 +34°C° 0 mm 2 m/s 754 mmHg 62%
    20:00 +32°C° 0 mm 2 m/s 755 mmHg 65%
    21:00 +31°C° 0 mm 3 m/s 755 mmHg 69%
    22:00 +31°C° 0,2 mm 2 m/s 755 mmHg 71%
    23:00 +31°C° 0,2 mm 2 m/s 755 mmHg 74%

    25 Noiembrie, Sâmbătă

    Timp Temperatura Precipitaţii Vânt Presiune Umiditate
    00:00 +30°C° 0,2 mm 2 m/s 755 mmHg 77%
    01:00 +30°C° 0 mm 2 m/s 755 mmHg 78%
    02:00 +30°C° 0 mm 2 m/s 755 mmHg 79%
    03:00 +30°C° 0 mm 2 m/s 754 mmHg 80%
    04:00 +30°C° 0,5 mm 2 m/s 755 mmHg 81%
    05:00 +30°C° 0,5 mm 2 m/s 755 mmHg 83%
    06:00 +29°C° 0,5 mm 1 m/s 756 mmHg 84%
    07:00 +31°C° 0,1 mm 1 m/s 756 mmHg 78%
    08:00 +32°C° 0,1 mm 2 m/s 756 mmHg 71%
    09:00 +34°C° 0,1 mm 2 m/s 757 mmHg 65%
    10:00 +35°C° 0,3 mm 2 m/s 756 mmHg 62%
    11:00 +36°C° 0,3 mm 2 m/s 756 mmHg 59%
    12:00 +36°C° 0,3 mm 2 m/s 756 mmHg 56%
    13:00 +36°C° 1 mm 2 m/s 755 mmHg 56%
    14:00 +36°C° 1 mm 2 m/s 755 mmHg 57%
    15:00 +36°C° 1 mm 2 m/s 754 mmHg 58%
    16:00 +35°C° 1,2 mm 2 m/s 754 mmHg 62%
    17:00 +34°C° 1,2 mm 2 m/s 755 mmHg 67%
    18:00 +32°C° 1,2 mm 2 m/s 755 mmHg 71%
    19:00 +32°C° 0,1 mm 2 m/s 755 mmHg 73%
    20:00 +31°C° 0,1 mm 2 m/s 755 mmHg 76%
    21:00 +30°C° 0,1 mm 2 m/s 756 mmHg 78%
    22:00 +30°C° 0,3 mm 2 m/s 756 mmHg 79%
    23:00 +30°C° 0,3 mm 1 m/s 756 mmHg 80%
    Arată mai mult